| time (UTC) | temp F | wind direction | speed MPH | gust MPH | rain 1hr in | rain 24hr in | rain mn in | humidity % | barometer mb |
| 20260510153019 | 67 | 97 | 2.0 | 5.0 | 0.00 | 0.06 | 0.00 | 76 | 1013.6 |
| 20260510152539 | 66 | 92 | 1.0 | 6.0 | 0.00 | 0.06 | 0.00 | 79 | 1013.7 |
| 20260510152017 | 66 | 15 | 2.0 | 4.0 | 0.00 | 0.06 | 0.00 | 78 | 1013.6 |
| 20260510151557 | 65 | 328 | 1.0 | 4.0 | 0.00 | 0.06 | 0.00 | 79 | 1013.7 |
| 20260510151017 | 65 | 305 | 2.0 | 4.0 | 0.00 | 0.06 | 0.00 | 79 | 1013.8 |
| 20260510150516 | 65 | 337 | 1.0 | 3.0 | 0.00 | 0.06 | 0.00 | 81 | 1013.8 |
| 20260510150036 | 64 | 138 | 2.0 | 5.0 | 0.00 | 0.06 | 0.00 | 80 | 1013.7 |
| 20260510145516 | 64 | 289 | 1.0 | 3.0 | 0.00 | 0.06 | 0.00 | 83 | 1013.7 |
| 20260510145016 | 64 | 4 | 2.0 | 4.0 | 0.00 | 0.06 | 0.00 | 82 | 1013.7 |
| 20260510144539 | 63 | 350 | 1.0 | 3.0 | 0.00 | 0.06 | 0.00 | 83 | 1013.7 |
| 20260510144018 | 63 | 308 | 1.0 | 4.0 | 0.00 | 0.06 | 0.00 | 84 | 1013.7 |
| 20260510143517 | 62 | 25 | 2.0 | 5.0 | 0.00 | 0.06 | 0.00 | 85 | 1013.8 |
| 20260510143018 | 62 | 105 | 2.0 | 5.0 | 0.00 | 0.06 | 0.00 | 86 | 1013.8 |
| 20260510142518 | 62 | 124 | 2.0 | 5.0 | 0.00 | 0.06 | 0.00 | 86 | 1013.8 |
| 20260510142017 | 61 | 256 | 1.0 | 3.0 | 0.00 | 0.06 | 0.00 | 88 | 1013.8 |
| 20260510141517 | 61 | 123 | 2.0 | 4.0 | 0.00 | 0.06 | 0.00 | 88 | 1013.7 |
| 20260510141017 | 60 | 124 | 1.0 | 4.0 | 0.00 | 0.06 | 0.00 | 87 | 1013.7 |
| 20260510140517 | 59 | 147 | 1.0 | 3.0 | 0.00 | 0.06 | 0.00 | 89 | 1013.7 |
| 20260510140017 | 59 | 155 | 1.0 | 3.0 | 0.00 | 0.06 | 0.00 | 92 | 1013.6 |
| 20260510135537 | 58 | 107 | 1.0 | 3.0 | 0.00 | 0.06 | 0.00 | 94 | 1013.6 |
| 20260510135017 | 57 | 108 | 1.0 | 2.0 | 0.00 | 0.06 | 0.00 | 96 | 1013.5 |
| 20260510134518 | 56 | 287 | 1.0 | 2.0 | 0.00 | 0.06 | 0.00 | 98 | 1013.4 |
| 20260510134039 | 56 | 230 | 1.0 | 2.0 | 0.00 | 0.06 | 0.00 | 97 | 1013.4 |
| 20260510133538 | 55 | 232 | 1.0 | 3.0 | 0.00 | 0.06 | 0.00 | 98 | 1013.3 |
| 20260510133038 | 55 | 103 | 1.0 | 3.0 | 0.00 | 0.06 | 0.00 | 100 | 1013.4 |
| 20260510132517 | 54 | 101 | 1.0 | 3.0 | 0.00 | 0.06 | 0.00 | 100 | 1013.6 |
| 20260510132039 | 54 | 247 | 1.0 | 2.0 | 0.00 | 0.06 | 0.00 | 100 | 1013.6 |
| 20260510131519 | 54 | 48 | 0.0 | 1.0 | 0.00 | 0.06 | 0.00 | 100 | 1013.6 |
| 20260510131019 | 54 | 21 | 0.0 | 1.0 | 0.00 | 0.06 | 0.00 | 100 | 1013.7 |
| 20260510130519 | 53 | 288 | 1.0 | 1.0 | 0.00 | 0.06 | 0.00 | 100 | 1013.7 |
| 20260510130019 | 53 | 273 | 1.0 | 2.0 | 0.00 | 0.06 | 0.00 | 100 | 1013.6 |
| 20260510125520 | 53 | 42 | 1.0 | 2.0 | 0.00 | 0.06 | 0.00 | 100 | 1013.6 |
| 20260510125019 | 53 | 329 | 1.0 | 2.0 | 0.00 | 0.06 | 0.00 | 100 | 1013.5 |
| 20260510124520 | 53 | 33 | 1.0 | 3.0 | 0.00 | 0.06 | 0.00 | 100 | 1013.3 |
| 20260510124020 | 53 | 207 | 2.0 | 3.0 | 0.00 | 0.06 | 0.00 | 100 | 1013.1 |
| 20260510123520 | 52 | 124 | 2.0 | 3.0 | 0.00 | 0.06 | 0.00 | 100 | 1013.1 |
| 20260510123020 | 52 | 201 | 1.0 | 2.0 | 0.00 | 0.06 | 0.00 | 100 | 1013.1 |
| 20260510122600 | 52 | 157 | 2.0 | 3.0 | 0.00 | 0.06 | 0.00 | 100 | 1013.1 |
| 20260510122020 | 52 | 125 | 1.0 | 2.0 | 0.00 | 0.06 | 0.00 | 100 | 1013.0 |
| 20260510121520 | 52 | 202 | 1.0 | 2.0 | 0.00 | 0.06 | 0.00 | 100 | 1013.0 |
| 20260510121040 | 52 | 163 | 1.0 | 3.0 | 0.00 | 0.06 | 0.00 | 100 | 1012.9 |
| 20260510120520 | 52 | 141 | 1.0 | 3.0 | 0.00 | 0.06 | 0.00 | 100 | 1013.0 |
| 20260510120020 | 52 | 162 | 1.0 | 3.0 | 0.00 | 0.06 | 0.00 | 100 | 1012.8 |
| 20260510115520 | 52 | 227 | 1.0 | 2.0 | 0.00 | 0.06 | 0.00 | 100 | 1012.7 |
| 20260510115041 | 52 | 176 | 1.0 | 2.0 | 0.00 | 0.06 | 0.00 | 100 | 1012.7 |
| 20260510114541 | 52 | 139 | 1.0 | 3.0 | 0.00 | 0.06 | 0.00 | 99 | 1012.7 |
| 20260510114021 | 52 | 136 | 2.0 | 3.0 | 0.00 | 0.06 | 0.00 | 99 | 1012.7 |
| 20260510113521 | 52 | 166 | 1.0 | 2.0 | 0.00 | 0.06 | 0.00 | 99 | 1012.7 |
| 20260510113021 | 52 | 207 | 1.0 | 2.0 | 0.00 | 0.06 | 0.00 | 99 | 1012.7 |
| 20260510112521 | 52 | 231 | 1.0 | 2.0 | 0.00 | 0.06 | 0.00 | 99 | 1012.7 |
| 20260510112021 | 51 | 140 | 1.0 | 2.0 | 0.00 | 0.06 | 0.00 | 99 | 1012.6 |
| 20260510111521 | 51 | 159 | 1.0 | 2.0 | 0.00 | 0.06 | 0.00 | 99 | 1012.6 |
| 20260510111021 | 51 | 164 | 1.0 | 3.0 | 0.00 | 0.06 | 0.00 | 99 | 1012.6 |
| 20260510110521 | 51 | 266 | 1.0 | 3.0 | 0.00 | 0.06 | 0.00 | 99 | 1012.7 |
| 20260510110042 | 51 | 247 | 1.0 | 2.0 | 0.00 | 0.06 | 0.00 | 99 | 1012.6 |
| 20260510105522 | 51 | 232 | 1.0 | 1.0 | 0.00 | 0.06 | 0.00 | 99 | 1012.4 |
| 20260510105022 | 51 | 213 | 1.0 | 1.0 | 0.00 | 0.06 | 0.00 | 99 | 1012.3 |
| 20260510104522 | 51 | 212 | 1.0 | 1.0 | 0.00 | 0.06 | 0.00 | 99 | 1012.2 |
| 20260510104022 | 51 | 152 | 1.0 | 1.0 | 0.00 | 0.06 | 0.00 | 99 | 1012.1 |
| 20260510103522 | 51 | 204 | 0.0 | 1.0 | 0.00 | 0.06 | 0.00 | 99 | 1012.1 |
| 20260510103022 | 51 | 250 | 1.0 | 2.0 | 0.00 | 0.06 | 0.00 | 99 | 1012.1 |
| 20260510102542 | 51 | 232 | 1.0 | 1.0 | 0.00 | 0.06 | 0.00 | 99 | 1012.0 |
| 20260510102022 | 51 | 234 | 2.0 | 4.0 | 0.00 | 0.06 | 0.00 | 99 | 1012.0 |
| 20260510101522 | 51 | 203 | 1.0 | 1.0 | 0.00 | 0.06 | 0.00 | 99 | 1012.0 |
| 20260510101022 | 51 | 173 | 1.0 | 2.0 | 0.00 | 0.06 | 0.00 | 99 | 1012.0 |
| 20260510100522 | 51 | 214 | 1.0 | 2.0 | 0.00 | 0.06 | 0.00 | 99 | 1012.0 |
| 20260510100022 | 51 | 181 | 1.0 | 2.0 | 0.00 | 0.06 | 0.00 | 99 | 1011.9 |
| 20260510095522 | 51 | 258 | 1.0 | 2.0 | 0.00 | 0.06 | 0.00 | 99 | 1011.9 |
| 20260510095023 | 51 | 205 | 1.0 | 1.0 | 0.00 | 0.06 | 0.00 | 99 | 1011.9 |
| 20260510094522 | 51 | 126 | 1.0 | 2.0 | 0.00 | 0.06 | 0.00 | 99 | 1011.8 |
| 20260510094023 | 51 | 146 | 1.0 | 2.0 | 0.00 | 0.06 | 0.00 | 99 | 1011.9 |
| 20260510093543 | 51 | 235 | 1.0 | 2.0 | 0.00 | 0.06 | 0.00 | 99 | 1011.9 |
| 20260510093023 | 50 | 146 | 1.0 | 1.0 | 0.00 | 0.06 | 0.00 | 99 | 1012.0 |
| 20260510092523 | 50 | 240 | 1.0 | 3.0 | 0.00 | 0.06 | 0.00 | 99 | 1011.9 |
| 20260510092043 | 50 | 223 | 1.0 | 2.0 | 0.00 | 0.06 | 0.00 | 99 | 1012.0 |
| 20260510091523 | 50 | 237 | 1.0 | 2.0 | 0.00 | 0.06 | 0.00 | 99 | 1012.0 |
| 20260510091023 | 50 | 226 | 1.0 | 2.0 | 0.00 | 0.06 | 0.00 | 99 | 1012.0 |
| 20260510090523 | 50 | 137 | 1.0 | 2.0 | 0.00 | 0.06 | 0.00 | 99 | 1011.9 |
| 20260510090017 | 50 | 205 | 1.0 | 3.0 | 0.00 | 0.06 | 0.00 | 99 | 1012.0 |
| 20260510085517 | 50 | 135 | 2.0 | 4.0 | 0.00 | 0.06 | 0.00 | 99 | 1011.9 |
| 20260510085017 | 49 | 258 | 1.0 | 2.0 | 0.00 | 0.06 | 0.00 | 99 | 1012.0 |
| 20260510084518 | 49 | 154 | 1.0 | 3.0 | 0.00 | 0.06 | 0.00 | 99 | 1011.9 |
| 20260510084017 | 49 | 160 | 2.0 | 4.0 | 0.00 | 0.06 | 0.00 | 99 | 1011.7 |
| 20260510083558 | 48 | 236 | 2.0 | 3.0 | 0.00 | 0.06 | 0.00 | 99 | 1012.0 |
| 20260510083018 | 48 | 171 | 1.0 | 3.0 | 0.00 | 0.06 | 0.00 | 99 | 1011.8 |
| 20260510082518 | 48 | 297 | 1.0 | 2.0 | 0.00 | 0.06 | 0.00 | 99 | 1011.7 |
| 20260510082018 | 48 | 138 | 1.0 | 1.0 | 0.00 | 0.06 | 0.00 | 99 | 1011.4 |
| 20260510081538 | 48 | 173 | 0.0 | 1.0 | 0.00 | 0.06 | 0.00 | 99 | 1011.3 |
| 20260510081038 | 48 | 129 | 1.0 | 2.0 | 0.00 | 0.06 | 0.00 | 99 | 1011.3 |
| 20260510080518 | 48 | 147 | 1.0 | 2.0 | 0.00 | 0.06 | 0.00 | 99 | 1011.3 |
| 20260510080018 | 48 | 162 | 1.0 | 1.0 | 0.00 | 0.06 | 0.00 | 99 | 1011.3 |
| 20260510075518 | 48 | 121 | 1.0 | 2.0 | 0.00 | 0.06 | 0.00 | 99 | 1011.3 |
| 20260510075018 | 48 | 145 | 1.0 | 2.0 | 0.00 | 0.06 | 0.00 | 99 | 1011.2 |
| 20260510074519 | 48 | 213 | 1.0 | 2.0 | 0.00 | 0.06 | 0.00 | 99 | 1011.2 |
| 20260510074018 | 48 | 192 | 1.0 | 2.0 | 0.00 | 0.06 | 0.00 | 99 | 1011.3 |
| 20260510073518 | 48 | 191 | 1.0 | 2.0 | 0.00 | 0.06 | 0.00 | 99 | 1011.3 |
| 20260510073018 | 48 | 160 | 0.0 | 1.0 | 0.00 | 0.06 | 0.00 | 99 | 1011.2 |
| 20260510072518 | 48 | 232 | 1.0 | 2.0 | 0.00 | 0.06 | 0.00 | 99 | 1011.2 |
| 20260510072039 | 48 | 203 | 1.0 | 2.0 | 0.00 | 0.06 | 0.00 | 99 | 1011.2 |
| 20260510071559 | 48 | 169 | 1.0 | 2.0 | 0.00 | 0.06 | 0.00 | 99 | 1011.2 |
| 20260510071019 | 48 | 250 | 1.0 | 3.0 | 0.00 | 0.06 | 0.00 | 99 | 1011.2 |
| 20260510070518 | 48 | 264 | 1.0 | 4.0 | 0.00 | 0.06 | 0.00 | 99 | 1011.2 |
| 20260510070016 | 48 | 275 | 0.0 | 1.0 | 0.00 | 0.06 | 0.00 | 99 | 1011.1 |
| 20260510065516 | 48 | 133 | 1.0 | 2.0 | 0.00 | 0.06 | 0.00 | 99 | 1011.0 |
| 20260510065016 | 48 | 138 | 1.0 | 2.0 | 0.00 | 0.06 | 0.00 | 99 | 1011.0 |
| 20260510064540 | 48 | 159 | 1.0 | 1.0 | 0.00 | 0.06 | 0.00 | 99 | 1011.0 |
| 20260510064059 | 48 | 165 | 0.0 | 1.0 | 0.00 | 0.06 | 0.00 | 99 | 1010.8 |
| 20260510063520 | 48 | 129 | 1.0 | 2.0 | 0.00 | 0.06 | 0.00 | 99 | 1010.7 |
| 20260510063017 | 48 | 134 | 1.0 | 2.0 | 0.00 | 0.06 | 0.00 | 99 | 1010.7 |
| 20260510062537 | 48 | 139 | 1.0 | 1.0 | 0.00 | 0.06 | 0.00 | 99 | 1010.8 |
| 20260510062017 | 48 | 147 | 0.0 | 1.0 | 0.00 | 0.06 | 0.00 | 99 | 1010.9 |
| 20260510061517 | 48 | 133 | 1.0 | 2.0 | 0.00 | 0.06 | 0.00 | 99 | 1010.8 |
| 20260510061017 | 48 | 131 | 1.0 | 1.0 | 0.00 | 0.06 | 0.00 | 99 | 1010.8 |
| 20260510060517 | 48 | 128 | 1.0 | 2.0 | 0.00 | 0.06 | 0.00 | 99 | 1010.9 |
| 20260510060038 | 48 | 138 | 0.0 | 1.0 | 0.00 | 0.06 | 0.00 | 99 | 1010.9 |
| 20260510055520 | 48 | 136 | 1.0 | 1.0 | 0.00 | 0.06 | 0.00 | 99 | 1010.9 |
| 20260510055020 | 49 | 135 | 1.0 | 2.0 | 0.00 | 0.06 | 0.00 | 99 | 1010.9 |
| 20260510054517 | 49 | 132 | 1.0 | 1.0 | 0.00 | 0.06 | 0.00 | 99 | 1010.9 |
| 20260510054017 | 49 | 157 | 1.0 | 1.0 | 0.00 | 0.06 | 0.00 | 99 | 1011.0 |
| 20260510053517 | 49 | 156 | 0.0 | 1.0 | 0.00 | 0.06 | 0.00 | 99 | 1011.1 |
| 20260510053018 | 49 | 137 | 1.0 | 2.0 | 0.00 | 0.06 | 0.00 | 99 | 1011.1 |
| 20260510052517 | 49 | 122 | 1.0 | 2.0 | 0.00 | 0.06 | 0.00 | 99 | 1011.1 |
| 20260510052037 | 49 | 133 | 1.0 | 2.0 | 0.00 | 0.06 | 0.00 | 99 | 1011.1 |
| 20260510051518 | 49 | 152 | 1.0 | 1.0 | 0.00 | 0.06 | 0.00 | 99 | 1011.2 |
| 20260510051018 | 49 | 136 | 1.0 | 2.0 | 0.00 | 0.06 | 0.00 | 99 | 1011.2 |
| 20260510050558 | 49 | 138 | 0.0 | 1.0 | 0.00 | 0.06 | 0.00 | 99 | 1011.3 |
| 20260510050018 | 49 | 125 | 0.0 | 1.0 | 0.00 | 0.06 | 0.00 | 99 | 1011.2 |
| 20260510045558 | 49 | 151 | 0.0 | 1.0 | 0.00 | 0.06 | 0.00 | 99 | 1011.2 |
| 20260510045038 | 49 | 141 | 0.0 | 1.0 | 0.00 | 0.06 | 0.00 | 99 | 1011.3 |
| 20260510044518 | 49 | 155 | 1.0 | 1.0 | 0.00 | 0.06 | 0.00 | 99 | 1011.3 |
| 20260510044018 | 49 | 145 | 1.0 | 2.0 | 0.00 | 0.06 | 0.00 | 99 | 1011.3 |
| 20260510043518 | 49 | 130 | 1.0 | 2.0 | 0.00 | 0.06 | 0.00 | 99 | 1011.3 |
| 20260510043018 | 49 | 149 | 0.0 | 1.0 | 0.00 | 0.06 | 0.00 | 99 | 1011.3 |
| 20260510042518 | 49 | 160 | 0.0 | 1.0 | 0.00 | 0.06 | 0.00 | 99 | 1011.3 |
| 20260510042019 | 49 | 153 | 1.0 | 2.0 | 0.00 | 0.06 | 0.00 | 99 | 1011.3 |
| 20260510041518 | 48 | 153 | 0.0 | 1.0 | 0.00 | 0.06 | 0.00 | 99 | 1011.3 |
| 20260510041018 | 48 | 148 | 0.0 | 1.0 | 0.00 | 0.06 | 0.00 | 99 | 1011.3 |
| 20260510040516 | 48 | 149 | 0.0 | 1.0 | 0.00 | 0.06 | 0.00 | 99 | 1011.3 |
| 20260510040016 | 48 | 129 | 0.0 | 1.0 | 0.00 | 0.06 | 0.00 | 99 | 1011.3 |
| 20260510035519 | 48 | 132 | 1.0 | 1.0 | 0.00 | 0.06 | 0.06 | 99 | 1011.3 |
| 20260510035019 | 48 | 142 | 0.0 | 1.0 | 0.00 | 0.06 | 0.06 | 99 | 1011.3 |
| 20260510034519 | 48 | 146 | 0.0 | 1.0 | 0.00 | 0.06 | 0.06 | 99 | 1011.2 |
| 20260510034019 | 48 | 139 | 0.0 | 1.0 | 0.00 | 0.06 | 0.06 | 99 | 1011.2 |
| 20260510033540 | 48 | 140 | 1.0 | 2.0 | 0.00 | 0.06 | 0.06 | 99 | 1011.1 |
| 20260510033017 | 48 | 144 | 1.0 | 2.0 | 0.00 | 0.06 | 0.06 | 99 | 1011.0 |
| 20260510032520 | 48 | 115 | 1.0 | 1.0 | 0.00 | 0.06 | 0.06 | 99 | 1011.0 |
| 20260510032016 | 48 | 132 | 0.0 | 1.0 | 0.00 | 0.06 | 0.06 | 99 | 1011.0 |
| 20260510031557 | 48 | 126 | 1.0 | 2.0 | 0.00 | 0.06 | 0.06 | 100 | 1011.1 |
| 20260510031037 | 48 | 139 | 1.0 | 2.0 | 0.00 | 0.06 | 0.06 | 100 | 1011.0 |
| 20260510030517 | 48 | 138 | 0.0 | 1.0 | 0.00 | 0.06 | 0.06 | 100 | 1011.0 |
| 20260510030017 | 48 | 114 | 0.0 | 1.0 | 0.00 | 0.06 | 0.06 | 100 | 1010.9 |
| 20260510025520 | 48 | 129 | 0.0 | 1.0 | 0.00 | 0.06 | 0.06 | 100 | 1010.9 |
| 20260510025020 | 49 | 141 | 0.0 | 1.0 | 0.00 | 0.06 | 0.06 | 100 | 1010.9 |
| 20260510024540 | 49 | 126 | 1.0 | 1.0 | 0.00 | 0.06 | 0.06 | 100 | 1010.8 |
| 20260510024018 | 49 | 132 | 1.0 | 2.0 | 0.00 | 0.06 | 0.06 | 100 | 1010.8 |
| 20260510023517 | 48 | 133 | 1.0 | 2.0 | 0.00 | 0.06 | 0.06 | 100 | 1010.8 |
| 20260510023018 | 48 | 138 | 0.0 | 1.0 | 0.00 | 0.06 | 0.06 | 100 | 1010.8 |
| 20260510022537 | 48 | 114 | 1.0 | 1.0 | 0.00 | 0.06 | 0.06 | 100 | 1010.8 |
| 20260510022017 | 48 | 123 | 1.0 | 2.0 | 0.00 | 0.06 | 0.06 | 99 | 1010.9 |
| 20260510021518 | 48 | 161 | 0.0 | 1.0 | 0.00 | 0.06 | 0.06 | 99 | 1010.8 |
| 20260510021018 | 49 | 140 | 0.0 | 1.0 | 0.00 | 0.06 | 0.06 | 99 | 1010.8 |
| 20260510020518 | 49 | 131 | 1.0 | 1.0 | 0.00 | 0.06 | 0.06 | 99 | 1010.8 |
| 20260510020118 | 49 | 129 | 1.0 | 1.0 | 0.00 | 0.06 | 0.06 | 99 | 1010.8 |
| 20260510015518 | 49 | 102 | 0.0 | 1.0 | 0.00 | 0.06 | 0.06 | 99 | 1010.9 |
| 20260510015018 | 49 | 141 | 0.0 | 1.0 | 0.00 | 0.06 | 0.06 | 99 | 1010.9 |
| 20260510014518 | 50 | 154 | 0.0 | 1.0 | 0.00 | 0.06 | 0.06 | 99 | 1010.9 |
| 20260510014018 | 50 | 112 | 1.0 | 1.0 | 0.00 | 0.06 | 0.06 | 99 | 1010.9 |
| 20260510013518 | 50 | 122 | 1.0 | 2.0 | 0.00 | 0.06 | 0.06 | 99 | 1010.9 |
| 20260510013019 | 50 | 137 | 1.0 | 2.0 | 0.00 | 0.06 | 0.06 | 99 | 1010.9 |
| 20260510012539 | 50 | 120 | 0.0 | 1.0 | 0.00 | 0.06 | 0.06 | 99 | 1010.8 |
| 20260510012018 | 50 | 128 | 0.0 | 1.0 | 0.00 | 0.06 | 0.06 | 99 | 1010.8 |
| 20260510011539 | 50 | 128 | 1.0 | 2.0 | 0.00 | 0.06 | 0.06 | 99 | 1010.7 |
| 20260510011036 | 51 | 129 | 1.0 | 2.0 | 0.00 | 0.06 | 0.06 | 99 | 1010.7 |
| 20260510010516 | 51 | 137 | 1.0 | 2.0 | 0.00 | 0.06 | 0.06 | 99 | 1010.6 |
| 20260510010016 | 51 | 160 | 0.0 | 1.0 | 0.00 | 0.06 | 0.06 | 98 | 1010.6 |
| 20260510005519 | 51 | 133 | 1.0 | 1.0 | 0.00 | 0.06 | 0.06 | 98 | 1010.5 |
| 20260510005019 | 51 | 154 | 0.0 | 1.0 | 0.00 | 0.06 | 0.06 | 98 | 1010.5 |
| 20260510004519 | 52 | 107 | 1.0 | 2.0 | 0.00 | 0.06 | 0.06 | 98 | 1010.4 |
| 20260510004020 | 52 | 125 | 1.0 | 2.0 | 0.00 | 0.06 | 0.06 | 98 | 1010.3 |
| 20260510003519 | 52 | 129 | 1.0 | 2.0 | 0.00 | 0.06 | 0.06 | 98 | 1010.2 |
| 20260510003037 | 52 | 130 | 1.0 | 2.0 | 0.00 | 0.06 | 0.06 | 98 | 1010.3 |
| 20260510002517 | 53 | 127 | 1.0 | 2.0 | 0.00 | 0.06 | 0.06 | 98 | 1010.3 |
| 20260510002117 | 53 | 134 | 1.0 | 2.0 | 0.00 | 0.06 | 0.06 | 97 | 1010.3 |
| 20260510001537 | 53 | 115 | 1.0 | 2.0 | 0.00 | 0.06 | 0.06 | 97 | 1010.3 |
| 20260510001017 | 53 | 116 | 1.0 | 2.0 | 0.00 | 0.06 | 0.06 | 97 | 1010.3 |
| 20260510000517 | 54 | 137 | 1.0 | 1.0 | 0.00 | 0.06 | 0.06 | 97 | 1010.3 |
| 20260510000017 | 54 | 136 | 1.0 | 1.0 | 0.00 | 0.06 | 0.06 | 96 | 1010.2 |
| 20260509235520 | 54 | 122 | 1.0 | 2.0 | 0.00 | 0.06 | 0.06 | 96 | 1010.2 |
| 20260509235020 | 54 | 133 | 0.0 | 1.0 | 0.00 | 0.06 | 0.06 | 96 | 1010.3 |
| 20260509234520 | 55 | 171 | 0.0 | 3.0 | 0.00 | 0.06 | 0.06 | 96 | 1010.3 |
| 20260509234017 | 55 | 165 | 0.0 | 1.0 | 0.00 | 0.06 | 0.06 | 95 | 1010.2 |
| 20260509233517 | 55 | 139 | 1.0 | 1.0 | 0.00 | 0.06 | 0.06 | 95 | 1010.3 |
| 20260509233037 | 55 | 132 | 0.0 | 1.0 | 0.00 | 0.06 | 0.06 | 95 | 1010.4 |
| 20260509232537 | 56 | 177 | 0.0 | 1.0 | 0.00 | 0.06 | 0.06 | 95 | 1010.3 |
| 20260509232018 | 56 | 158 | 0.0 | 1.0 | 0.00 | 0.06 | 0.06 | 95 | 1010.3 |
| 20260509231518 | 56 | 169 | 0.0 | 1.0 | 0.00 | 0.06 | 0.06 | 94 | 1010.3 |
| 20260509231018 | 57 | 161 | 0.0 | 1.0 | 0.00 | 0.06 | 0.06 | 93 | 1010.3 |
| 20260509230518 | 57 | 173 | 0.0 | 1.0 | 0.00 | 0.06 | 0.06 | 93 | 1010.3 |
| 20260509230038 | 57 | 185 | 1.0 | 1.0 | 0.00 | 0.06 | 0.06 | 93 | 1010.3 |
| 20260509225518 | 57 | 117 | 1.0 | 3.0 | 0.00 | 0.06 | 0.06 | 94 | 1010.3 |
| 20260509225018 | 57 | 177 | 0.0 | 1.0 | 0.00 | 0.06 | 0.06 | 94 | 1010.3 |
| 20260509224518 | 56 | 275 | 1.0 | 2.0 | 0.00 | 0.06 | 0.06 | 95 | 1010.4 |
| 20260509224039 | 56 | 172 | 1.0 | 2.0 | 0.00 | 0.06 | 0.06 | 95 | 1010.3 |
| 20260509223519 | 56 | 119 | 1.0 | 3.0 | 0.00 | 0.06 | 0.06 | 95 | 1010.2 |
| 20260509223039 | 56 | 171 | 1.0 | 2.0 | 0.00 | 0.06 | 0.06 | 95 | 1010.2 |
| 20260509222518 | 56 | 163 | 1.0 | 2.0 | 0.00 | 0.06 | 0.06 | 95 | 1010.2 |
| 20260509222018 | 56 | 140 | 2.0 | 5.0 | 0.00 | 0.06 | 0.06 | 95 | 1010.3 |
| 20260509221519 | 56 | 148 | 1.0 | 3.0 | 0.01 | 0.06 | 0.06 | 95 | 1010.3 |
| 20260509221016 | 56 | 129 | 1.0 | 3.0 | 0.02 | 0.06 | 0.06 | 95 | 1010.4 |
| 20260509220516 | 56 | 132 | 2.0 | 4.0 | 0.03 | 0.06 | 0.06 | 95 | 1010.5 |
| 20260509220036 | 56 | 106 | 1.0 | 3.0 | 0.04 | 0.06 | 0.06 | 95 | 1010.5 |
| 20260509215519 | 56 | 143 | 2.0 | 3.0 | 0.05 | 0.06 | 0.06 | 95 | 1010.6 |
| 20260509215019 | 56 | 147 | 1.0 | 3.0 | 0.06 | 0.06 | 0.06 | 95 | 1010.6 |
| 20260509214519 | 56 | 170 | 2.0 | 4.0 | 0.06 | 0.06 | 0.06 | 95 | 1010.6 |
| 20260509214019 | 56 | 173 | 2.0 | 4.0 | 0.06 | 0.06 | 0.06 | 96 | 1010.6 |
| 20260509213517 | 56 | 156 | 1.0 | 3.0 | 0.06 | 0.06 | 0.06 | 96 | 1010.7 |
| 20260509213036 | 56 | 162 | 2.0 | 3.0 | 0.06 | 0.06 | 0.06 | 96 | 1010.7 |
| 20260509212517 | 56 | 125 | 1.0 | 3.0 | 0.06 | 0.06 | 0.06 | 95 | 1010.6 |
| 20260509212017 | 56 | 111 | 2.0 | 2.0 | 0.06 | 0.06 | 0.06 | 95 | 1010.8 |
| 20260509211517 | 56 | 185 | 1.0 | 2.0 | 0.05 | 0.05 | 0.05 | 93 | 1010.8 |
| 20260509211037 | 56 | 245 | 1.0 | 2.0 | 0.04 | 0.04 | 0.04 | 93 | 1010.4 |
| 20260509210517 | 56 | 122 | 1.0 | 2.0 | 0.02 | 0.03 | 0.03 | 91 | 1010.5 |
| 20260509210017 | 57 | 126 | 1.0 | 3.0 | 0.02 | 0.02 | 0.02 | 90 | 1010.5 |
| 20260509205520 | 57 | 207 | 1.0 | 2.0 | 0.01 | 0.01 | 0.01 | 90 | 1010.7 |
| 20260509205017 | 57 | 204 | 1.0 | 2.0 | 0.00 | 0.00 | 0.00 | 89 | 1010.7 |
| 20260509204517 | 57 | 260 | 1.0 | 2.0 | 0.00 | 0.00 | 0.00 | 90 | 1010.5 |
| 20260509204017 | 57 | 247 | 1.0 | 4.0 | 0.00 | 0.00 | 0.00 | 89 | 1010.4 |
| 20260509203518 | 57 | 252 | 2.0 | 3.0 | 0.00 | 0.00 | 0.00 | 88 | 1010.2 |
| 20260509203018 | 57 | 248 | 1.0 | 4.0 | 0.00 | 0.00 | 0.00 | 88 | 1010.3 |
| 20260509202518 | 57 | 235 | 1.0 | 4.0 | 0.00 | 0.00 | 0.00 | 88 | 1010.4 |
| 20260509202018 | 58 | 290 | 2.0 | 4.0 | 0.00 | 0.00 | 0.00 | 88 | 1010.6 |
| 20260509201518 | 58 | 281 | 2.0 | 6.0 | 0.00 | 0.00 | 0.00 | 88 | 1010.5 |
| 20260509201018 | 58 | 280 | 2.0 | 4.0 | 0.00 | 0.00 | 0.00 | 89 | 1010.4 |
| 20260509200518 | 58 | 280 | 1.0 | 3.0 | 0.00 | 0.00 | 0.00 | 90 | 1010.4 |
| 20260509200018 | 58 | 264 | 3.0 | 6.0 | 0.00 | 0.00 | 0.00 | 88 | 1010.5 |
| 20260509195518 | 58 | 311 | 1.0 | 3.0 | 0.00 | 0.01 | 0.00 | 89 | 1010.5 |
| 20260509195018 | 57 | 307 | 1.0 | 2.0 | 0.00 | 0.01 | 0.00 | 89 | 1010.7 |
| 20260509194539 | 57 | 294 | 1.0 | 2.0 | 0.00 | 0.01 | 0.00 | 89 | 1010.8 |
| 20260509194039 | 57 | 299 | 1.0 | 2.0 | 0.00 | 0.01 | 0.00 | 88 | 1010.9 |
| 20260509193539 | 58 | 304 | 1.0 | 6.0 | 0.00 | 0.01 | 0.00 | 88 | 1011.0 |
| 20260509193019 | 58 | 282 | 2.0 | 3.0 | 0.00 | 0.01 | 0.00 | 87 | 1011.2 |
| 20260509192519 | 58 | 296 | 1.0 | 5.0 | 0.00 | 0.00 | 0.00 | 85 | 1011.3 |
| 20260509192016 | 58 | 307 | 1.0 | 3.0 | 0.00 | 0.00 | 0.00 | 86 | 1011.3 |
| 20260509191516 | 58 | 301 | 1.0 | 3.0 | 0.00 | 0.00 | 0.00 | 85 | 1011.3 |
| 20260509191016 | 58 | 300 | 1.0 | 4.0 | 0.00 | 0.00 | 0.00 | 84 | 1011.4 |
| 20260509190539 | 58 | 280 | 2.0 | 6.0 | 0.00 | 0.00 | 0.00 | 85 | 1011.3 |
| 20260509190019 | 59 | 339 | 1.0 | 4.0 | 0.00 | 0.00 | 0.00 | 83 | 1011.4 |
| 20260509185519 | 59 | 290 | 3.0 | 8.0 | 0.00 | 0.00 | 0.00 | 81 | 1011.4 |
| 20260509185019 | 60 | 326 | 1.0 | 2.0 | 0.00 | 0.00 | 0.00 | 80 | 1011.4 |
| 20260509184519 | 60 | 349 | 1.0 | 3.0 | 0.00 | 0.00 | 0.00 | 79 | 1011.3 |
| 20260509184017 | 60 | 353 | 1.0 | 3.0 | 0.00 | 0.00 | 0.00 | 79 | 1011.3 |
| 20260509183517 | 60 | 310 | 2.0 | 5.0 | 0.00 | 0.00 | 0.00 | 78 | 1011.3 |
| 20260509183017 | 60 | 338 | 2.0 | 5.0 | 0.00 | 0.00 | 0.00 | 78 | 1011.2 |
| 20260509182537 | 60 | 309 | 1.0 | 4.0 | 0.00 | 0.00 | 0.00 | 78 | 1011.1 |
| 20260509182017 | 61 | 341 | 1.0 | 3.0 | 0.00 | 0.00 | 0.00 | 77 | 1011.1 |
| 20260509181537 | 61 | 295 | 2.0 | 5.0 | 0.00 | 0.00 | 0.00 | 77 | 1011.1 |
| 20260509181017 | 61 | 313 | 1.0 | 3.0 | 0.00 | 0.00 | 0.00 | 76 | 1011.1 |
| 20260509180520 | 61 | 300 | 1.0 | 3.0 | 0.00 | 0.01 | 0.00 | 76 | 1011.0 |
| 20260509180020 | 61 | 274 | 2.0 | 6.0 | 0.00 | 0.01 | 0.00 | 77 | 1011.0 |
| 20260509175517 | 61 | 10 | 1.0 | 2.0 | 0.00 | 0.01 | 0.00 | 77 | 1011.1 |
| 20260509175017 | 61 | 341 | 2.0 | 5.0 | 0.00 | 0.01 | 0.00 | 76 | 1011.2 |
| 20260509174517 | 61 | 337 | 1.0 | 3.0 | 0.00 | 0.01 | 0.00 | 76 | 1011.1 |
| 20260509174017 | 61 | 327 | 2.0 | 4.0 | 0.00 | 0.01 | 0.00 | 77 | 1011.1 |
| 20260509173518 | 61 | 342 | 2.0 | 3.0 | 0.00 | 0.01 | 0.00 | 77 | 1011.2 |
| 20260509173018 | 62 | 308 | 1.0 | 2.0 | 0.00 | 0.01 | 0.00 | 78 | 1011.3 |
| 20260509172518 | 62 | 320 | 1.0 | 5.0 | 0.00 | 0.01 | 0.00 | 77 | 1011.3 |
| 20260509172018 | 62 | 315 | 2.0 | 4.0 | 0.00 | 0.01 | 0.00 | 77 | 1011.2 |
| 20260509171518 | 63 | 329 | 1.0 | 3.0 | 0.00 | 0.01 | 0.00 | 75 | 1011.2 |
| 20260509171038 | 63 | 355 | 1.0 | 3.0 | 0.00 | 0.01 | 0.00 | 74 | 1011.2 |
| 20260509170518 | 63 | 172 | 1.0 | 5.0 | 0.00 | 0.01 | 0.00 | 72 | 1011.2 |
| 20260509170038 | 63 | 149 | 1.0 | 4.0 | 0.00 | 0.01 | 0.00 | 72 | 1011.1 |
| 20260509165519 | 63 | 148 | 1.0 | 3.0 | 0.00 | 0.01 | 0.00 | 72 | 1011.1 |
| 20260509165018 | 63 | 71 | 1.0 | 4.0 | 0.00 | 0.01 | 0.00 | 70 | 1011.1 |
| 20260509164519 | 64 | 100 | 2.0 | 4.0 | 0.00 | 0.01 | 0.00 | 68 | 1011.2 |
| 20260509164019 | 64 | 100 | 2.0 | 5.0 | 0.00 | 0.01 | 0.00 | 66 | 1011.2 |
| 20260509163519 | 65 | 2 | 1.0 | 7.0 | 0.00 | 0.01 | 0.00 | 68 | 1011.3 |
| 20260509163039 | 65 | 139 | 1.0 | 5.0 | 0.00 | 0.01 | 0.00 | 66 | 1011.3 |
| 20260509162519 | 65 | 332 | 2.0 | 5.0 | 0.00 | 0.01 | 0.00 | 65 | 1011.3 |
| 20260509162016 | 65 | 80 | 2.0 | 5.0 | 0.00 | 0.01 | 0.00 | 64 | 1011.3 |
| 20260509161516 | 65 | 10 | 2.0 | 5.0 | 0.00 | 0.01 | 0.00 | 65 | 1011.4 |
| 20260509161036 | 65 | 44 | 3.0 | 7.0 | 0.00 | 0.01 | 0.00 | 63 | 1011.3 |
| 20260509160519 | 65 | 112 | 2.0 | 5.0 | 0.00 | 0.01 | 0.00 | 64 | 1011.6 |
| 20260509160020 | 65 | 84 | 3.0 | 6.0 | 0.00 | 0.01 | 0.00 | 64 | 1011.4 |
| 20260509155519 | 65 | 55 | 3.0 | 7.0 | 0.00 | 0.01 | 0.00 | 65 | 1011.5 |
| 20260509155020 | 65 | 359 | 2.0 | 5.0 | 0.00 | 0.01 | 0.00 | 65 | 1011.8 |
| 20260509154517 | 64 | 97 | 2.0 | 4.0 | 0.00 | 0.01 | 0.00 | 68 | 1011.9 |
| 20260509154019 | 64 | 67 | 3.0 | 8.0 | 0.00 | 0.01 | 0.00 | 67 | 1011.9 |
| 20260509153517 | 64 | 48 | 2.0 | 4.0 | 0.00 | 0.01 | 0.00 | 67 | 1011.9 |